When you browse on this site, cookies collect data to enhance your experience and personalize the content and advertising you see.
Visit our Privacy Policy to learn more. By continuing to use the site, you agree to this use of cookies and data.
  • In Portugal
  • List of Countries
  • For 7 days
  • Water Temperature
  • Weather Map
  • Weather Widgets
  • user-avatar
    Login

    Hourly Weather Chervlennye Buruny

    Today, 2 June, Tuesday

    Time Temperature Precipitation Wind Pressure Humidity
    00:00 +20°C° 0 mm 2 mps 752 mmHg 69%
    01:00 +19°C° 0 mm 2 mps 752 mmHg 72%
    02:00 +19°C° 0 mm 1 mps 751 mmHg 75%
    03:00 +17°C° 0 mm 0 mps 752 mmHg 78%
    04:00 +19°C° 0 mm 1 mps 751 mmHg 75%
    05:00 +20°C° 0 mm 1 mps 751 mmHg 73%
    06:00 +20°C° 0 mm 2 mps 751 mmHg 71%
    07:00 +21°C° 0 mm 2 mps 751 mmHg 63%
    08:00 +24°C° 0 mm 2 mps 750 mmHg 55%
    09:00 +25°C° 0 mm 2 mps 750 mmHg 47%
    10:00 +27°C° 0 mm 2 mps 750 mmHg 43%
    11:00 +28°C° 0 mm 2 mps 750 mmHg 39%
    12:00 +30°C° 0 mm 2 mps 750 mmHg 35%
    13:00 +30°C° 0 mm 1 mps 749 mmHg 33%
    14:00 +31°C° 0 mm 1 mps 749 mmHg 32%
    15:00 +32°C° 0 mm 1 mps 748 mmHg 31%
    16:00 +31°C° 0 mm 1 mps 748 mmHg 33%
    17:00 +31°C° 0 mm 1 mps 748 mmHg 36%
    18:00 +31°C° 0 mm 2 mps 748 mmHg 38%
    19:00 +29°C° 0 mm 1 mps 748 mmHg 43%
    20:00 +27°C° 0 mm 1 mps 748 mmHg 48%
    21:00 +26°C° 0 mm 1 mps 748 mmHg 53%
    22:00 +25°C° 0 mm 1 mps 747 mmHg 54%
    23:00 +24°C° 0 mm 1 mps 747 mmHg 56%

    Tomorrow, 3 June, Wednesday

    Time Temperature Precipitation Wind Pressure Humidity
    00:00 +24°C° 0 mm 2 mps 747 mmHg 57%
    01:00 +23°C° 0 mm 2 mps 747 mmHg 59%
    02:00 +23°C° 0 mm 2 mps 747 mmHg 61%
    03:00 +21°C° 0 mm 2 mps 747 mmHg 62%
    04:00 +22°C° 0 mm 3 mps 747 mmHg 62%
    05:00 +22°C° 0 mm 4 mps 747 mmHg 62%
    06:00 +22°C° 0 mm 5 mps 747 mmHg 62%
    07:00 +23°C° 0 mm 6 mps 747 mmHg 59%
    08:00 +26°C° 0 mm 6 mps 748 mmHg 56%
    09:00 +27°C° 0 mm 7 mps 748 mmHg 53%
    10:00 +28°C° 0 mm 7 mps 748 mmHg 50%
    11:00 +29°C° 0 mm 6 mps 748 mmHg 47%
    12:00 +30°C° 0 mm 6 mps 748 mmHg 45%
    13:00 +30°C° 0 mm 6 mps 749 mmHg 44%
    14:00 +32°C° 0 mm 6 mps 749 mmHg 44%
    15:00 +32°C° 0 mm 6 mps 749 mmHg 44%
    16:00 +30°C° 0.1 mm 5 mps 749 mmHg 46%
    17:00 +29°C° 0.1 mm 5 mps 749 mmHg 48%
    18:00 +28°C° 0.1 mm 5 mps 749 mmHg 50%
    19:00 +27°C° 0.6 mm 5 mps 750 mmHg 53%
    20:00 +26°C° 0.6 mm 5 mps 750 mmHg 57%
    21:00 +25°C° 0.6 mm 5 mps 751 mmHg 60%
    22:00 +23°C° 0.9 mm 5 mps 751 mmHg 65%
    23:00 +21°C° 0.9 mm 6 mps 752 mmHg 70%

    Day after tomorrow, 4 June, Thursday

    Time Temperature Precipitation Wind Pressure Humidity
    00:00 +20°C° 0.9 mm 6 mps 752 mmHg 74%
    01:00 +20°C° 0.5 mm 5 mps 752 mmHg 76%
    02:00 +19°C° 0.5 mm 5 mps 753 mmHg 78%
    03:00 +18°C° 0.5 mm 4 mps 753 mmHg 80%
    04:00 +19°C° 0.1 mm 4 mps 753 mmHg 79%
    05:00 +19°C° 0.1 mm 4 mps 753 mmHg 78%
    06:00 +19°C° 0.1 mm 4 mps 754 mmHg 77%
    07:00 +20°C° 0 mm 4 mps 754 mmHg 71%
    08:00 +22°C° 0 mm 3 mps 754 mmHg 64%
    09:00 +25°C° 0 mm 3 mps 754 mmHg 57%
    10:00 +26°C° 0 mm 3 mps 754 mmHg 52%
    11:00 +27°C° 0 mm 2 mps 754 mmHg 47%
    12:00 +28°C° 0 mm 2 mps 754 mmHg 42%
    13:00 +29°C° 0 mm 2 mps 753 mmHg 40%
    14:00 +29°C° 0 mm 2 mps 753 mmHg 37%
    15:00 +30°C° 0 mm 2 mps 753 mmHg 35%
    16:00 +30°C° 0 mm 2 mps 753 mmHg 35%
    17:00 +30°C° 0 mm 2 mps 753 mmHg 35%
    18:00 +30°C° 0 mm 2 mps 753 mmHg 35%
    19:00 +29°C° 0 mm 3 mps 753 mmHg 40%
    20:00 +28°C° 0 mm 3 mps 753 mmHg 46%
    21:00 +26°C° 0 mm 4 mps 753 mmHg 51%
    22:00 +26°C° 0 mm 3 mps 753 mmHg 53%
    23:00 +25°C° 0 mm 3 mps 754 mmHg 55%

    5 June, Friday

    Time Temperature Precipitation Wind Pressure Humidity
    00:00 +24°C° 0 mm 2 mps 754 mmHg 57%
    01:00 +22°C° 0.1 mm 4 mps 754 mmHg 58%
    02:00 +22°C° 0.1 mm 5 mps 755 mmHg 60%
    03:00 +21°C° 0.1 mm 7 mps 755 mmHg 61%
    04:00 +21°C° 0.2 mm 7 mps 756 mmHg 63%
    05:00 +20°C° 0.2 mm 6 mps 756 mmHg 66%
    06:00 +20°C° 0.2 mm 6 mps 757 mmHg 69%
    07:00 +20°C° 0.2 mm 5 mps 757 mmHg 68%
    08:00 +21°C° 0.2 mm 5 mps 758 mmHg 66%
    09:00 +21°C° 0.2 mm 4 mps 758 mmHg 65%
    10:00 +21°C° 0.1 mm 4 mps 758 mmHg 67%
    11:00 +20°C° 0.1 mm 3 mps 758 mmHg 70%
    12:00 +20°C° 0.1 mm 3 mps 758 mmHg 72%
    13:00 +23°C° 0 mm 2 mps 758 mmHg 64%
    14:00 +24°C° 0 mm 2 mps 758 mmHg 55%
    15:00 +26°C° 0 mm 1 mps 758 mmHg 47%
    16:00 +26°C° 0 mm 1 mps 758 mmHg 46%
    17:00 +26°C° 0 mm 1 mps 758 mmHg 45%
    18:00 +26°C° 0 mm 1 mps 759 mmHg 44%
    19:00 +25°C° 0 mm 1 mps 759 mmHg 49%
    20:00 +24°C° 0 mm 1 mps 759 mmHg 54%
    21:00 +20°C° 0 mm 0 mps 759 mmHg 59%
    22:00 +22°C° 0 mm 1 mps 759 mmHg 60%
    23:00 +22°C° 0 mm 1 mps 759 mmHg 61%

    6 June, Saturday

    Time Temperature Precipitation Wind Pressure Humidity
    00:00 +21°C° 0 mm 1 mps 759 mmHg 62%
    01:00 +21°C° 0 mm 1 mps 759 mmHg 64%
    02:00 +20°C° 0 mm 1 mps 759 mmHg 66%
    03:00 +20°C° 0 mm 1 mps 759 mmHg 69%
    04:00 +21°C° 0 mm 1 mps 759 mmHg 67%
    05:00 +21°C° 0 mm 1 mps 759 mmHg 65%
    06:00 +22°C° 0 mm 1 mps 759 mmHg 63%
    07:00 +23°C° 0 mm 1 mps 759 mmHg 58%
    08:00 +25°C° 0 mm 1 mps 759 mmHg 53%
    09:00 +26°C° 0 mm 1 mps 759 mmHg 48%
    10:00 +27°C° 0 mm 1 mps 759 mmHg 45%
    11:00 +28°C° 0 mm 2 mps 759 mmHg 42%
    12:00 +29°C° 0 mm 2 mps 759 mmHg 39%
    13:00 +30°C° 0 mm 2 mps 759 mmHg 37%
    14:00 +30°C° 0 mm 2 mps 758 mmHg 36%
    15:00 +31°C° 0 mm 2 mps 758 mmHg 34%
    16:00 +30°C° 0 mm 4 mps 758 mmHg 37%
    17:00 +30°C° 0 mm 5 mps 758 mmHg 39%
    18:00 +29°C° 0 mm 6 mps 758 mmHg 42%
    19:00 +28°C° 0 mm 6 mps 758 mmHg 43%
    20:00 +27°C° 0 mm 6 mps 758 mmHg 45%
    21:00 +25°C° 0 mm 5 mps 758 mmHg 46%
    22:00 +25°C° 0 mm 5 mps 758 mmHg 49%
    23:00 +23°C° 0 mm 4 mps 758 mmHg 51%

    7 June, Sunday

    Time Temperature Precipitation Wind Pressure Humidity
    00:00 +22°C° 0 mm 3 mps 758 mmHg 54%
    01:00 +21°C° 0 mm 2 mps 758 mmHg 56%
    02:00 +21°C° 0 mm 2 mps 758 mmHg 58%
    03:00 +21°C° 0 mm 1 mps 758 mmHg 60%
    04:00 +22°C° 0 mm 1 mps 758 mmHg 59%
    05:00 +21°C° 0 mm 2 mps 758 mmHg 57%
    06:00 +23°C° 0 mm 2 mps 758 mmHg 55%
    07:00 +25°C° 0 mm 2 mps 758 mmHg 50%
    08:00 +26°C° 0 mm 3 mps 758 mmHg 44%
    09:00 +28°C° 0 mm 3 mps 758 mmHg 39%
    10:00 +29°C° 0 mm 3 mps 758 mmHg 36%
    11:00 +30°C° 0 mm 4 mps 758 mmHg 33%
    12:00 +32°C° 0 mm 4 mps 758 mmHg 30%
    13:00 +33°C° 0 mm 4 mps 757 mmHg 28%
    14:00 +33°C° 0 mm 4 mps 757 mmHg 27%
    15:00 +34°C° 0 mm 3 mps 757 mmHg 26%
    16:00 +33°C° 0 mm 4 mps 757 mmHg 28%
    17:00 +33°C° 0 mm 5 mps 757 mmHg 30%
    18:00 +32°C° 0 mm 5 mps 757 mmHg 32%
    19:00 +30°C° 0 mm 5 mps 757 mmHg 35%
    20:00 +28°C° 0 mm 5 mps 757 mmHg 38%
    21:00 +26°C° 0 mm 5 mps 757 mmHg 40%
    22:00 +25°C° 0 mm 5 mps 757 mmHg 41%
    23:00 +23°C° 0 mm 4 mps 757 mmHg 42%
    Show more